User: anonymous   Login
Location: Unspecified
(0.0000°N, 0.0000°E)
Time: 04:37:09
(UTC+00:00)
Language:

UBAKUSAT - Orbit

View from above orbital plane
View from above orbital plane
View from above satellite
View from above satellite

Ground track
Ground track

The orbit data is extracted from the following two-line orbital elements,

1 43466U 98067NP  19295.76600629  .00026229  00000-0  20736-3 0  9997
2 43466  51.6361  52.5040 0001387 303.9586  56.1280 15.71173527 82704
Epoch (UTC): 22 October 2019 18:23:02
Eccentricity: 0.0001387
inclination: 51.6361°
perigee height: 354 km
apogee height: 356 km
right ascension of ascending node: 52.5040°
argument of perigee: 303.9586°
revolutions per day: 15.71173527
mean anomaly at epoch: 56.1280°
orbit number at epoch: 8270

The dashed part of the orbit path shows where the satellite is in the earth's shadow,  

DLR